Location: Unspecified
(0.0000°N, 0.0000°E)
Time: 04:03:07
(UTC+02:00)

SWIFT - Visible Passes

Search period start: 21 September 2014 00:00
Search period end: 01 October 2014 00:00
Orbit: 560 x 577 km, 20.6° (Epoch: 20 September)

Date Brightness Start Highest point End Pass type
(mag) Time Alt. Az. Time Alt. Az. Time Alt. Az.
21 Sep 3.9 06:31:55 21° NNW 06:33:45 28° NNE 06:37:28 10° E visible
21 Sep 2.8 20:11:21 10° WSW 20:15:38 61° NNW 20:19:56 10° ENE visible
21 Sep 4.8 21:55:03 10° WNW 21:57:00 17° NW 21:57:00 17° NW visible
22 Sep 3.3 06:31:29 29° NNW 06:33:00 41° NNE 06:37:03 10° E visible
22 Sep 3.5 20:10:46 10° W 20:14:51 40° NNW 20:18:56 10° NE visible
22 Sep 5.1 21:55:14 10° NW 21:56:29 13° NNW 21:56:29 13° NNW visible
23 Sep 2.6 06:31:01 43° NW 06:32:13 62° NNE 06:36:28 10° ESE visible
23 Sep 4.1 20:10:21 10° W 20:14:05 28° NNW 20:17:49 10° NE visible
24 Sep 2.2 06:30:33 56° WNW 06:31:24 87° SSW 06:35:43 10° ESE visible
25 Sep 2.5 06:30:02 52° SW 06:30:36 58° SSW 06:34:50 10° ESE visible
26 Sep 3.0 06:29:29 38° SSW 06:29:47 38° SSW 06:33:50 10° SE visible
27 Sep 3.6 06:28:52 27° SSW 06:28:59 27° SSW 06:32:41 10° SE visible
28 Sep 4.1 06:28:12 20° SSW 06:28:13 20° SSW 06:31:22 10° SSE visible
29 Sep 4.5 06:27:29 14° SSW 06:27:29 14° SSW 06:29:52 10° SSE visible
30 Sep 4.8 06:26:43 11° SSW 06:26:45 11° SSW 06:27:48 10° S visible
